User: anonymous   Login
Location: Caltech
(34.1382°N, 118.1253°W)
Time: 07:59:41
(UTC-08:00)
Language:

Iridium 65 - Orbit

View from above orbital plane
View from above orbital plane
View from above satellite
View from above satellite

Ground track
Ground track

The orbit data is extracted from the following two-line orbital elements,

1 25288U 98021D   17019.69553971  .00000131  00000-0  46662-4 0  9991
2 25288  86.3966 285.9229 0016881  87.3089 273.0519 14.34217588983731
Epoch (UTC): 19 January 2017 16:41:34
Eccentricity: 0.0016881
inclination: 86.3966°
perigee height: 765 km
apogee height: 790 km
right ascension of ascending node: 285.9229°
argument of perigee: 87.3089°
revolutions per day: 14.34217588
mean anomaly at epoch: 273.0519°
orbit number at epoch: 98373

The dashed part of the orbit path shows where the satellite is in the earth's shadow,  

DLR